Showing default

HAWK-C, 43799

Orbit data source: Space-Track

HAWK-C, 43799 is a payload satellite owned by HawkEye 360 (US) in SSO that was launched on Mon, 03 Dec 2018 UTC via an FALCON 9 launch vehicle from the Air Force Western Test Range (AFWTR). Payload-class satellites include a variety of spacecraft equipped with specific instruments for various scientific and technological missions. These include communications satellites like Starlink; space stations such as the ISS; scientific satellites like the Hubble; Earth observation satellites from companies like Planet Labs, Umbra, and HawkEye 360; GPS; miniature CubeSats for education and research; and military/defense satellites.

Loading next visibility...
Identifier
43799, 2018-099AT
Orbit
SSO
Country
Flag of USUS
Related business
Manufacturer
UTIAS-SFL
Mission
Operational Commercial Sigint
Bus & Motor
NEMO-V1, Unknown motor
Mass
12.75 kg wet, 12 kg dry
Launch date (UTC)
2018-12-03 (8 years ago)
Launch vehicle
FALCON 9
Launch site
Air Force Western Test Range (AFWTR)
Object type
Payload
Rocket body
Debris
Shape & HBR
Box + 2 Pan, 1.0 m
Radar Cross Section
0.348 m², Medium (>0.1 m² and < 1m²)

Expand to show TLE details & history
Last TLE update: 14 hours ago

TLE from 14 hours ago
0 HAWK-C
1 43799U 18099AT  26235.61972747  .00007705  00000-0  26912-3 0  9992
2 43799  97.3839 288.2408 0040745  48.5136 311.9590 15.29052291424219
Epoch: 2026-08-23T14:52Z
TLE epoch observation values (Epoch: 2026-08-23T14:52:24.453Z)
Latitude
-0.00001°
Longitude
93.22574°
Altitude
463.127 km
Speed
7.645 km/s
True Right ascension
19h 12m 57s
True Declination
0° 00' 00"
Sunlit
Object was in full shadow at epoch
Visualization orbit readout
Latitude
Unknown
Longitude
Unknown
Altitude
Unknown
Speed
Unknown
Apparent Right ascension
Unknown
Apparent Declination
Unknown
Sunlit
N/A
Visualization observer readout
Local Sidereal Time
20:00:47
Azimuth
Unknown
Elevation
Unknown
Doppler factor
Unknown
Orbital elements
Apogee altitude
503.522 km
Perigee altitude
447.671 km
Semi-major axis
6,853.734 km
Eccentricity
0.00407
Inclination
97.3839°
RAAN
288.2408°
Arg. of periapsis
48.5136°
True anomaly
311.61062°
Mean anomaly
311.959°
Eccentric anomaly
311.78493°
Mean motion
3.82518 °/min
Orbital period
94.11 mins
BSTAR
0.00026912
Loading maneuver chart data...
Computing Atmospheric mass density...
Loading historical data...
Loading historical data...
Loading historical data...
Loading historical data...
Loading historical data...
Loading historical data...
Loading historical data...

Documentation

Showing up to 5 results
|